Location: Oriwa
(40.7500°S, 175.3333°E)
Time: 14:09:24
(UTC+00:00)

Meteor 1-24 Rocket - Pass Details

Date: 03 February 2023
Orbit: 790 x 927 km, 81.3° (Epoch: 31 March)

Event Time Altitude Azimuth Distance (km) Brightness Sun altitude
Rises 16:53:46 0° 350° (N) 3,380 6.5 -6.8°
Reaches altitude 10° 16:56:07 10° 349° (NNW) 2,474 5.8 -6.4°
Maximum altitude 17:01:46 82° 260° (W) 894 3.8 -5.5°
Drops below altitude 10° 17:07:43 10° 172° (S) 2,599 6.8 -4.5°
Sets 17:10:14 0° 171° (S) 3,564 7.5 -4.0°
